,,Stat6,,Stat2,,Stat8,,Stat9,,Stat10,,Wind1,,Wind1,
time,status,PA1M_AVG,status,PR1M_SUM,status,RH1M_AVG,status,SR1M_AVG,status,TA1M_AVG,status,W1dAve1m,status,W1sAve1m,
2006-01-07, 00:00:00,VALID,916.525,VALID,0,VALID,100,VALID,0.0679233,VALID,18.5436,VALID,138,VALID,2.24051,
2006-01-07, 00:01:00,VALID,916.504,VALID,0,VALID,100,VALID,0.0509425,VALID,18.56,VALID,139,VALID,1.78888,
2006-01-07, 00:02:00,VALID,916.505,VALID,0,VALID,100,VALID,0.0339617,VALID,18.5829,VALID,142,VALID,1.57217,
2006-01-07, 00:03:00,VALID,916.484,VALID,0,VALID,100,VALID,0.0849042,VALID,18.5796,VALID,142,VALID,1.27325,
2006-01-07, 00:04:00,VALID,916.482,VALID,0,VALID,100,VALID,0.0679233,VALID,18.5762,VALID,116,VALID,1.0658,
2006-01-07, 00:05:00,VALID,916.452,VALID,0,VALID,100,VALID,0.0679233,VALID,18.5794,VALID,133,VALID,1.25632,
2006-01-07, 00:06:00,VALID,916.429,VALID,0,VALID,100,VALID,0.0339617,VALID,18.5695,VALID,132,VALID,1.12986,
2006-01-07, 00:07:00,VALID,916.422,VALID,0,VALID,100,VALID,0.0339617,VALID,18.5764,VALID,128,VALID,1.19495,
2006-01-07, 00:08:00,VALID,916.393,VALID,0,VALID,100,VALID,0.0679233,VALID,18.5667,VALID,127,VALID,0.953697,
2006-01-07, 00:09:00,VALID,916.392,VALID,0,VALID,100,VALID,0.0169808,VALID,18.5568,VALID,121,VALID,0.643576,
2006-01-07, 00:10:00,VALID,916.378,VALID,0,VALID,100,VALID,0.0849042,VALID,18.5436,VALID,127,VALID,0.603423,
2006-01-07, 00:11:00,VALID,916.368,VALID,0,VALID,100,VALID,0.0679233,VALID,18.5503,VALID,101,VALID,1.36076,
2006-01-07, 00:12:00,VALID,916.371,VALID,0,VALID,100,VALID,0.0679233,VALID,18.5436,VALID,96,VALID,1.58251,
2006-01-07, 00:13:00,VALID,916.386,VALID,0,VALID,100,VALID,0.0509425,VALID,18.5538,VALID,113,VALID,1.11961,
2006-01-07, 00:14:00,VALID,916.384,VALID,0,VALID,100,VALID,0.0339617,VALID,18.5672,VALID,136,VALID,0.814732,
2006-01-07, 00:15:00,VALID,916.391,VALID,0,VALID,100,VALID,0.0169808,VALID,18.5609,VALID,122,VALID,0.837003,
2006-01-07, 00:16:00,VALID,916.38,VALID,0,VALID,100,VALID,0.0169808,VALID,18.56,VALID,126,VALID,0.813058,
2006-01-07, 00:17:00,VALID,916.383,VALID,0,VALID,100,VALID,0.101885,VALID,18.5697,VALID,152,VALID,0.53196,
2006-01-07, 00:18:00,VALID,916.396,VALID,0,VALID,100,VALID,0.0339617,VALID,18.5799,VALID,138,VALID,0.732143,
2006-01-07, 00:19:00,VALID,916.405,VALID,0,VALID,100,VALID,0.0509425,VALID,18.5826,VALID,124,VALID,0.386719,
2006-01-07, 00:20:00,VALID,916.409,VALID,0,VALID,100,VALID,0.118866,VALID,18.5882,VALID,122,VALID,0.454985,
2006-01-07, 00:21:00,VALID,916.418,VALID,0,VALID,100,VALID,0.186789,VALID,18.5909,VALID,137,VALID,0.347747,
2006-01-07, 00:22:00,VALID,916.422,VALID,0,VALID,100,VALID,0.186789,VALID,18.5909,VALID,156,VALID,0.0132068,
2006-01-07, 00:23:00,VALID,916.415,VALID,0,VALID,100,VALID,0.186789,VALID,18.6043,VALID,115,VALID,0.363607,
2006-01-07, 00:24:00,VALID,916.417,VALID,0,VALID,100,VALID,0.152827,VALID,18.6103,VALID,115,VALID,0.0972656,
2006-01-07, 00:25:00,VALID,916.407,VALID,0,VALID,100,VALID,0.152827,VALID,18.6006,VALID,115,VALID,0.0617378,
2006-01-07, 00:26:00,VALID,916.402,VALID,0,VALID,100,VALID,0.186789,VALID,18.6009,VALID,115,VALID,0.0967685,
2006-01-07, 00:27:00,VALID,916.406,VALID,0,VALID,100,VALID,0.186789,VALID,18.5849,VALID,112,VALID,0.350391,
2006-01-07, 00:28:00,VALID,916.398,VALID,0,VALID,100,VALID,0.186789,VALID,18.5685,VALID,110,VALID,0.233103,
2006-01-07, 00:29:00,VALID,916.4,VALID,0,VALID,100,VALID,0.135847,VALID,18.5757,VALID,117,VALID,0.119618,
2006-01-07, 00:30:00,VALID,916.39,VALID,0,VALID,100,VALID,0.169808,VALID,18.5628,VALID,150,VALID,0.534801,
2006-01-07, 00:31:00,VALID,916.384,VALID,0,VALID,100,VALID,0.20377,VALID,18.5487,VALID,149,VALID,0.0602679,
2006-01-07, 00:32:00,VALID,916.361,VALID,0,VALID,100,VALID,0.135847,VALID,18.5328,VALID,148,VALID,0.145579,
2006-01-07, 00:33:00,VALID,916.344,VALID,0,VALID,100,VALID,0.152827,VALID,18.5231,VALID,106,VALID,0.480469,
2006-01-07, 00:34:00,VALID,916.332,VALID,0,VALID,100,VALID,0.135847,VALID,18.5002,VALID,100,VALID,0.387649,
2006-01-07, 00:35:00,VALID,916.324,VALID,0,VALID,100,VALID,0.101885,VALID,18.4755,VALID,100,VALID,0.635975,
2006-01-07, 00:36:00,VALID,916.325,VALID,0,VALID,100,VALID,0.101885,VALID,18.4439,VALID,100,VALID,0.451367,
2006-01-07, 00:37:00,VALID,916.319,VALID,0,VALID,100,VALID,0.118866,VALID,18.4243,VALID,100,VALID,0.511446,
2006-01-07, 00:38:00,VALID,916.323,VALID,0,VALID,100,VALID,0.101885,VALID,18.4275,VALID,100,VALID,0.617188,
2006-01-07, 00:39:00,VALID,916.323,VALID,0,VALID,100,VALID,0.101885,VALID,18.4407,VALID,100,VALID,0.692835,
2006-01-07, 00:40:00,VALID,916.32,VALID,0,VALID,100,VALID,0.101885,VALID,18.4432,VALID,100,VALID,0.76617,
2006-01-07, 00:41:00,VALID,916.315,VALID,0,VALID,100,VALID,0.101885,VALID,18.4566,VALID,100,VALID,0.804883,
2006-01-07, 00:42:00,VALID,916.308,VALID,0,VALID,100,VALID,0.101885,VALID,18.4469,VALID,91,VALID,0.95585,
2006-01-07, 00:43:00,VALID,916.312,VALID,0,VALID,100,VALID,0.101885,VALID,18.4407,VALID,84,VALID,1.02616,
2006-01-07, 00:44:00,VALID,916.312,VALID,0,VALID,100,VALID,0.101885,VALID,18.4372,VALID,86,VALID,1.01696,
2006-01-07, 00:45:00,VALID,916.313,VALID,0,VALID,100,VALID,0.101885,VALID,18.4471,VALID,89,VALID,0.862351,
2006-01-07, 00:46:00,VALID,916.314,VALID,0,VALID,100,VALID,0.101885,VALID,18.4342,VALID,88,VALID,0.681538,
2006-01-07, 00:47:00,VALID,916.303,VALID,0,VALID,100,VALID,0.118866,VALID,18.4248,VALID,87,VALID,0.726926,
2006-01-07, 00:48:00,VALID,916.31,VALID,0,VALID,100,VALID,0.118866,VALID,18.4278,VALID,87,VALID,0.803234,
2006-01-07, 00:49:00,VALID,916.307,VALID,0,VALID,100,VALID,0.101885,VALID,18.4278,VALID,87,VALID,0.727307,
2006-01-07, 00:50:00,VALID,916.302,VALID,0,VALID,100,VALID,0,VALID,18.4287,VALID,99,VALID,0.905506,
2006-01-07, 00:51:00,VALID,916.297,VALID,0,VALID,100,VALID,0,VALID,18.4448,VALID,107,VALID,0.747582,
2006-01-07, 00:52:00,VALID,916.282,VALID,0,VALID,100,VALID,0,VALID,18.4391,VALID,95,VALID,0.581836,
2006-01-07, 00:53:00,VALID,916.279,VALID,0,VALID,100,VALID,0,VALID,18.4388,VALID,86,VALID,0.687881,
2006-01-07, 00:54:01,VALID,916.295,VALID,0,VALID,100,VALID,0,VALID,18.4347,VALID,98,VALID,0.835392,
2006-01-07, 00:55:00,VALID,916.282,VALID,0,VALID,100,VALID,0,VALID,18.4416,VALID,98,VALID,0.723704,
2006-01-07, 00:56:00,VALID,916.28,VALID,0,VALID,100,VALID,0,VALID,18.4448,VALID,101,VALID,0.856571,
2006-01-07, 00:57:00,VALID,916.267,VALID,0,VALID,100,VALID,0,VALID,18.461,VALID,110,VALID,0.746003,
2006-01-07, 00:58:00,VALID,916.261,VALID,0,VALID,100,VALID,-0.0169808,VALID,18.4709,VALID,113,VALID,0.476918,
2006-01-07, 00:59:00,VALID,916.252,VALID,0,VALID,100,VALID,0.0169808,VALID,18.4774,VALID,113,VALID,0.270349,
2006-01-07, 01:00:00,VALID,916.253,VALID,0,VALID,100,VALID,0,VALID,18.4742,VALID,113,VALID,0.311928,
2006-01-07, 01:01:00,VALID,916.253,VALID,0,VALID,100,VALID,0.0169808,VALID,18.4975,VALID,113,VALID,0.327524,
2006-01-07, 01:02:01,VALID,916.237,VALID,0,VALID,100,VALID,0,VALID,18.5002,VALID,113,VALID,0.508878,
2006-01-07, 01:03:00,VALID,916.229,VALID,0,VALID,100,VALID,-0.0169808,VALID,18.5,VALID,96,VALID,0.651843,
2006-01-07, 01:04:01,VALID,916.208,VALID,0,VALID,100,VALID,0,VALID,18.5104,VALID,85,VALID,0.506836,
2006-01-07, 01:05:01,VALID,916.194,VALID,0,VALID,100,VALID,0.0679233,VALID,18.5127,VALID,98,VALID,0.906631,
2006-01-07, 01:06:00,VALID,916.182,VALID,0,VALID,100,VALID,0.0849042,VALID,18.5314,VALID,100,VALID,0.754724,
2006-01-07, 01:07:01,VALID,916.172,VALID,0,VALID,100,VALID,0.0849042,VALID,18.554,VALID,105,VALID,0.596839,
2006-01-07, 01:08:01,VALID,916.161,VALID,0,VALID,100,VALID,0.0849042,VALID,18.557,VALID,111,VALID,0.783507,
2006-01-07, 01:09:00,VALID,916.15,VALID,0,VALID,100,VALID,0.118866,VALID,18.5766,VALID,111,VALID,1.01799,
2006-01-07, 01:10:00,VALID,916.14,VALID,0,VALID,100,VALID,0.101885,VALID,18.596,VALID,117,VALID,0.483803,
2006-01-07, 01:11:01,VALID,916.123,VALID,0,VALID,100,VALID,0.0849042,VALID,18.5921,VALID,118,VALID,0.325707,
2006-01-07, 01:12:00,VALID,916.12,VALID,0,VALID,100,VALID,0.101885,VALID,18.6152,VALID,118,VALID,0.378089,
2006-01-07, 01:13:00,VALID,916.11,VALID,0,VALID,100,VALID,0.135847,VALID,18.6276,VALID,118,VALID,0.497456,
2006-01-07, 01:14:00,VALID,916.1,VALID,0,VALID,100,VALID,0.101885,VALID,18.6445,VALID,118,VALID,0.316964,
2006-01-07, 01:15:00,VALID,916.105,VALID,0,VALID,100,VALID,0.101885,VALID,18.6475,VALID,114,VALID,0.442769,
2006-01-07, 01:16:00,VALID,916.082,VALID,0,VALID,100,VALID,0.101885,VALID,18.657,VALID,100,VALID,0.697129,
2006-01-07, 01:17:00,VALID,916.099,VALID,0,VALID,100,VALID,0.118866,VALID,18.6604,VALID,110,VALID,0.862674,
2006-01-07, 01:18:00,VALID,916.091,VALID,0,VALID,100,VALID,0.101885,VALID,18.6632,VALID,110,VALID,1.04688,
2006-01-07, 01:19:00,VALID,916.087,VALID,0,VALID,100,VALID,0.101885,VALID,18.6865,VALID,103,VALID,1.07851,
2006-01-07, 01:20:00,VALID,916.086,VALID,0,VALID,100,VALID,0.135847,VALID,18.689,VALID,100,VALID,0.927148,
2006-01-07, 01:21:00,VALID,916.091,VALID,0,VALID,100,VALID,0.118866,VALID,18.693,VALID,109,VALID,0.965774,
2006-01-07, 01:22:01,VALID,916.096,VALID,0,VALID,100,VALID,0.118866,VALID,18.7024,VALID,110,VALID,0.959335,
2006-01-07, 01:23:01,VALID,916.085,VALID,0,VALID,100,VALID,0.118866,VALID,18.6957,VALID,106,VALID,0.919567,
2006-01-07, 01:24:00,VALID,916.081,VALID,0,VALID,100,VALID,0.118866,VALID,18.7059,VALID,105,VALID,1.01235,
2006-01-07, 01:25:01,VALID,916.065,VALID,0,VALID,100,VALID,0.152827,VALID,18.7193,VALID,106,VALID,1.22556,
2006-01-07, 01:26:00,VALID,916.046,VALID,0,VALID,100,VALID,0.135847,VALID,18.7119,VALID,106,VALID,1.33807,
2006-01-07, 01:27:01,VALID,916.025,VALID,0,VALID,100,VALID,0.118866,VALID,18.7313,VALID,113,VALID,1.26684,
2006-01-07, 01:28:00,VALID,916.014,VALID,0,VALID,100,VALID,0.101885,VALID,18.7313,VALID,110,VALID,1.27326,
2006-01-07, 01:29:00,VALID,916.01,VALID,0,VALID,100,VALID,0.118866,VALID,18.7375,VALID,120,VALID,0.894727,
2006-01-07, 01:30:00,VALID,915.993,VALID,0,VALID,100,VALID,0.118866,VALID,18.7442,VALID,109,VALID,0.664244,
2006-01-07, 01:31:00,VALID,915.986,VALID,0,VALID,100,VALID,0.118866,VALID,18.7479,VALID,102,VALID,0.719122,
2006-01-07, 01:32:00,VALID,915.975,VALID,0,VALID,100,VALID,0.135847,VALID,18.7507,VALID,110,VALID,0.596418,
2006-01-07, 01:33:01,VALID,915.957,VALID,0,VALID,100,VALID,0.135847,VALID,18.7375,VALID,118,VALID,0.855196,
2006-01-07, 01:34:00,VALID,915.967,VALID,0,VALID,100,VALID,0.118866,VALID,18.7345,VALID,131,VALID,0.820499,
2006-01-07, 01:35:01,VALID,915.957,VALID,0,VALID,100,VALID,0.118866,VALID,18.7415,VALID,129,VALID,1.26353,
2006-01-07, 01:36:01,VALID,915.959,VALID,0,VALID,100,VALID,0.0679233,VALID,18.732,VALID,134,VALID,1.1957,
2006-01-07, 01:37:00,VALID,915.943,VALID,0,VALID,100,VALID,0.101885,VALID,18.7221,VALID,135,VALID,1.27006,
2006-01-07, 01:38:01,VALID,915.935,VALID,0,VALID,100,VALID,0.0849042,VALID,18.6997,VALID,136,VALID,1.40254,
2006-01-07, 01:39:00,VALID,915.927,VALID,0,VALID,100,VALID,0.0679233,VALID,18.69,VALID,139,VALID,1.31008,
2006-01-07, 01:40:00,VALID,915.918,VALID,0,VALID,100,VALID,0.0679233,VALID,18.6734,VALID,133,VALID,1.26793,
2006-01-07, 01:41:01,VALID,915.898,VALID,0,VALID,100,VALID,0.0679233,VALID,18.6708,VALID,135,VALID,0.895241,
2006-01-07, 01:42:01,VALID,915.884,VALID,0,VALID,100,VALID,0.0679233,VALID,18.6609,VALID,130,VALID,0.795508,
2006-01-07, 01:43:00,VALID,915.874,VALID,0,VALID,100,VALID,0.101885,VALID,18.6581,VALID,134,VALID,1.1224,
2006-01-07, 01:44:00,VALID,915.864,VALID,0,VALID,100,VALID,0.0509425,VALID,18.645,VALID,131,VALID,0.929688,
2006-01-07, 01:45:00,VALID,915.865,VALID,0,VALID,100,VALID,0.0339617,VALID,18.6385,VALID,122,VALID,0.699219,
2006-01-07, 01:46:00,VALID,915.873,VALID,0,VALID,100,VALID,0.0169808,VALID,18.6452,VALID,118,VALID,0.770167,
2006-01-07, 01:47:00,VALID,915.862,VALID,0,VALID,100,VALID,0.0509425,VALID,18.642,VALID,135,VALID,0.488021,
2006-01-07, 01:48:00,VALID,915.858,VALID,0,VALID,100,VALID,0.0849042,VALID,18.6417,VALID,87,VALID,0.378049,
2006-01-07, 01:49:01,VALID,915.846,VALID,0,VALID,100,VALID,0.0679233,VALID,18.615,VALID,73,VALID,0.35032,
2006-01-07, 01:50:00,VALID,915.838,VALID,0,VALID,100,VALID,0.152827,VALID,18.6212,VALID,88,VALID,0.479353,
2006-01-07, 01:51:00,VALID,915.822,VALID,0,VALID,100,VALID,0.20377,VALID,18.6145,VALID,94,VALID,0.513317,
2006-01-07, 01:52:00,VALID,915.808,VALID,0,VALID,100,VALID,0.135847,VALID,18.6145,VALID,94,VALID,0.512074,
2006-01-07, 01:53:01,VALID,915.784,VALID,0,VALID,100,VALID,0.169808,VALID,18.6073,VALID,93,VALID,0.903706,
2006-01-07, 01:54:00,VALID,915.755,VALID,0,VALID,100,VALID,0.169808,VALID,18.6075,VALID,90,VALID,0.79306,
2006-01-07, 01:55:00,VALID,915.729,VALID,0,VALID,100,VALID,0.169808,VALID,18.6048,VALID,73,VALID,0.795987,
2006-01-07, 01:56:00,VALID,915.698,VALID,0,VALID,100,VALID,0.135847,VALID,18.6011,VALID,73,VALID,0.890816,
2006-01-07, 01:57:00,VALID,915.683,VALID,0,VALID,100,VALID,0.135847,VALID,18.5886,VALID,88,VALID,1.00533,
2006-01-07, 01:58:01,VALID,915.676,VALID,0,VALID,100,VALID,0.135847,VALID,18.5755,VALID,93,VALID,0.773251,
2006-01-07, 01:59:00,VALID,915.676,VALID,0,VALID,100,VALID,0.152827,VALID,18.5757,VALID,91,VALID,0.950218,
2006-01-07, 02:00:01,VALID,915.681,VALID,0,VALID,100,VALID,0.118866,VALID,18.5593,VALID,91,VALID,1.04197,
2006-01-07, 02:01:00,VALID,915.68,VALID,0,VALID,100,VALID,0.135847,VALID,18.5496,VALID,94,VALID,0.976017,
2006-01-07, 02:02:01,VALID,915.689,VALID,0,VALID,100,VALID,0.135847,VALID,18.5595,VALID,93,VALID,0.755335,
2006-01-07, 02:03:01,VALID,915.687,VALID,0,VALID,100,VALID,0.101885,VALID,18.5628,VALID,82,VALID,0.525073,
2006-01-07, 02:04:00,VALID,915.691,VALID,0,VALID,100,VALID,0.118866,VALID,18.5628,VALID,87,VALID,0.520898,
2006-01-07, 02:05:00,VALID,915.683,VALID,0,VALID,100,VALID,0.0509425,VALID,18.551,VALID,136,VALID,0.373884,
2006-01-07, 02:06:01,VALID,915.676,VALID,0,VALID,100,VALID,0.0679233,VALID,18.5478,VALID,138,VALID,0.420201,
2006-01-07, 02:07:01,VALID,915.669,VALID,0,VALID,100,VALID,0.0509425,VALID,18.5607,VALID,150,VALID,0.387695,
2006-01-07, 02:08:00,VALID,915.657,VALID,0,VALID,100,VALID,0.0509425,VALID,18.551,VALID,112,VALID,0.733817,
2006-01-07, 02:09:00,VALID,915.653,VALID,0,VALID,100,VALID,0.0679233,VALID,18.551,VALID,133,VALID,0.559961,
2006-01-07, 02:10:00,VALID,915.635,VALID,0,VALID,100,VALID,0.0679233,VALID,18.5545,VALID,155,VALID,0.137607,
2006-01-07, 02:11:00,VALID,915.632,VALID,0,VALID,100,VALID,0.0169808,VALID,18.5545,VALID,96,VALID,0.675305,
2006-01-07, 02:12:01,VALID,915.606,VALID,0,VALID,100,VALID,0.0169808,VALID,18.5485,VALID,91,VALID,0.720846,
2006-01-07, 02:13:01,VALID,915.599,VALID,0,VALID,100,VALID,0.0169808,VALID,18.5349,VALID,98,VALID,1.06858,
2006-01-07, 02:14:01,VALID,915.583,VALID,0,VALID,100,VALID,0,VALID,18.5388,VALID,92,VALID,1.00195,
2006-01-07, 02:15:01,VALID,915.573,VALID,0,VALID,100,VALID,0.0169808,VALID,18.5386,VALID,92,VALID,0.738715,
2006-01-07, 02:16:00,VALID,915.558,VALID,0,VALID,100,VALID,0.0509425,VALID,18.5416,VALID,92,VALID,0.747275,
2006-01-07, 02:17:00,VALID,915.566,VALID,0,VALID,100,VALID,0.0169808,VALID,18.551,VALID,83,VALID,0.613991,
2006-01-07, 02:18:00,VALID,915.567,VALID,0,VALID,100,VALID,0.0339617,VALID,18.5543,VALID,86,VALID,0.360305,
2006-01-07, 02:19:00,VALID,915.569,VALID,0,VALID,100,VALID,0.0849042,VALID,18.554,VALID,90,VALID,0.513021,
2006-01-07, 02:20:00,VALID,915.57,VALID,0,VALID,100,VALID,0.118866,VALID,18.5697,VALID,97,VALID,0.333203,
2006-01-07, 02:21:00,VALID,915.576,VALID,0,VALID,100,VALID,0.101885,VALID,18.5695,VALID,97,VALID,0.328125,
2006-01-07, 02:22:00,VALID,915.576,VALID,0,VALID,100,VALID,0.118866,VALID,18.5725,VALID,97,VALID,0.308689,
2006-01-07, 02:23:00,VALID,915.572,VALID,0,VALID,100,VALID,0.118866,VALID,18.5792,VALID,108,VALID,0.559775,
2006-01-07, 02:24:00,VALID,915.557,VALID,0,VALID,100,VALID,0.101885,VALID,18.5988,VALID,128,VALID,0.398264,
2006-01-07, 02:25:00,VALID,915.552,VALID,0,VALID,100,VALID,0.135847,VALID,18.5953,VALID,128,VALID,0.186928,
2006-01-07, 02:26:00,VALID,915.536,VALID,0,VALID,100,VALID,0.118866,VALID,18.5951,VALID,109,VALID,0.49442,
2006-01-07, 02:27:00,VALID,915.511,VALID,0,VALID,100,VALID,0.118866,VALID,18.5949,VALID,145,VALID,0.658249,
2006-01-07, 02:28:00,VALID,915.495,VALID,0,VALID,100,VALID,0.152827,VALID,18.608,VALID,133,VALID,0.782584,
2006-01-07, 02:29:00,VALID,915.482,VALID,0,VALID,100,VALID,0.169808,VALID,18.6209,VALID,136,VALID,1.02772,
2006-01-07, 02:30:00,VALID,915.462,VALID,0,VALID,100,VALID,0.135847,VALID,18.6304,VALID,134,VALID,0.498285,
2006-01-07, 02:31:00,VALID,915.456,VALID,0,VALID,100,VALID,0.135847,VALID,18.6466,VALID,113,VALID,0.420785,
2006-01-07, 02:32:00,VALID,915.453,VALID,0,VALID,100,VALID,0.135847,VALID,18.6433,VALID,132,VALID,0.532158,
2006-01-07, 02:33:01,VALID,915.449,VALID,0,VALID,100,VALID,0.118866,VALID,18.6632,VALID,136,VALID,0.158346,
2006-01-07, 02:34:01,VALID,915.449,VALID,0,VALID,100,VALID,0.118866,VALID,18.65,VALID,137,VALID,0.863758,
2006-01-07, 02:35:00,VALID,915.448,VALID,0,VALID,100,VALID,0.186789,VALID,18.6493,VALID,132,VALID,1.04724,
2006-01-07, 02:36:01,VALID,915.43,VALID,0,VALID,100,VALID,0.169808,VALID,18.6623,VALID,131,VALID,0.784299,
2006-01-07, 02:37:01,VALID,915.426,VALID,0,VALID,100,VALID,0.186789,VALID,18.6789,VALID,107,VALID,0.730078,
2006-01-07, 02:38:01,VALID,915.418,VALID,0,VALID,100,VALID,0.152827,VALID,18.6821,VALID,132,VALID,1.03524,
2006-01-07, 02:39:00,VALID,915.389,VALID,0,VALID,100,VALID,0.169808,VALID,18.6819,VALID,141,VALID,0.695131,
2006-01-07, 02:40:00,VALID,915.38,VALID,0,VALID,100,VALID,0.186789,VALID,18.6985,VALID,143,VALID,0.545987,
2006-01-07, 02:41:01,VALID,915.364,VALID,0,VALID,100,VALID,0.152827,VALID,18.7013,VALID,152,VALID,0.668146,
2006-01-07, 02:42:00,VALID,915.336,VALID,0,VALID,100,VALID,0.118866,VALID,18.7117,VALID,132,VALID,0.645312,
2006-01-07, 02:43:01,VALID,915.311,VALID,0,VALID,100,VALID,0.152827,VALID,18.7179,VALID,135,VALID,0.702415,
2006-01-07, 02:44:01,VALID,915.293,VALID,0,VALID,100,VALID,0.186789,VALID,18.7341,VALID,124,VALID,0.729581,
2006-01-07, 02:45:01,VALID,915.279,VALID,0,VALID,100,VALID,0.186789,VALID,18.7467,VALID,132,VALID,1.07231,
2006-01-07, 02:46:01,VALID,915.262,VALID,0,VALID,100,VALID,0.152827,VALID,18.7336,VALID,136,VALID,1.25885,
2006-01-07, 02:47:00,VALID,915.243,VALID,0,VALID,100,VALID,0.186789,VALID,18.7465,VALID,136,VALID,1.34339,
2006-01-07, 02:48:01,VALID,915.237,VALID,0,VALID,100,VALID,0.169808,VALID,18.753,VALID,111,VALID,0.859012,
2006-01-07, 02:49:01,VALID,915.231,VALID,0,VALID,100,VALID,0.169808,VALID,18.7527,VALID,100,VALID,1.09844,
2006-01-07, 02:50:01,VALID,915.233,VALID,0,VALID,100,VALID,0.101885,VALID,18.7574,VALID,96,VALID,1.1234,
2006-01-07, 02:51:00,VALID,915.222,VALID,0,VALID,100,VALID,0.0679233,VALID,18.7551,VALID,99,VALID,1.27925,
2006-01-07, 02:52:01,VALID,915.234,VALID,0,VALID,100,VALID,0.0509425,VALID,18.7516,VALID,89,VALID,1.0067,
2006-01-07, 02:53:01,VALID,915.233,VALID,0,VALID,100,VALID,0.0509425,VALID,18.7648,VALID,94,VALID,0.946403,
2006-01-07, 02:54:01,VALID,915.214,VALID,0,VALID,100,VALID,0.0679233,VALID,18.7683,VALID,88,VALID,1.02841,
2006-01-07, 02:55:01,VALID,915.218,VALID,0,VALID,100,VALID,0.0509425,VALID,18.7541,VALID,82,VALID,0.706174,
2006-01-07, 02:56:00,VALID,915.197,VALID,0,VALID,100,VALID,0.0679233,VALID,18.7512,VALID,97,VALID,0.608333,
2006-01-07, 02:57:00,VALID,915.178,VALID,0,VALID,100,VALID,0,VALID,18.7512,VALID,96,VALID,0.341882,
2006-01-07, 02:58:00,VALID,915.181,VALID,0,VALID,100,VALID,0.0169808,VALID,18.7512,VALID,96,VALID,0.482329,
2006-01-07, 02:59:01,VALID,915.149,VALID,0,VALID,100,VALID,0.0169808,VALID,18.735,VALID,96,VALID,0.555804,
2006-01-07, 03:00:01,VALID,915.139,VALID,0,VALID,100,VALID,0.0339617,VALID,18.7258,VALID,96,VALID,0.543818,
2006-01-07, 03:01:01,VALID,915.124,VALID,0,VALID,100,VALID,0.0679233,VALID,18.7223,VALID,96,VALID,0.390625,
2006-01-07, 03:02:01,VALID,915.126,VALID,0,VALID,100,VALID,0.0509425,VALID,18.6967,VALID,96,VALID,0.447027,
2006-01-07, 03:03:01,VALID,915.117,VALID,0,VALID,100,VALID,0.0509425,VALID,18.6964,VALID,96,VALID,0.515092,
2006-01-07, 03:04:01,VALID,915.123,VALID,0,VALID,100,VALID,0.0509425,VALID,18.693,VALID,96,VALID,0.486192,
2006-01-07, 03:05:00,VALID,915.115,VALID,0,VALID,100,VALID,0.0679233,VALID,18.6932,VALID,96,VALID,0.519345,
2006-01-07, 03:06:01,VALID,915.11,VALID,0,VALID,100,VALID,0.0679233,VALID,18.6734,VALID,101,VALID,0.576672,
2006-01-07, 03:07:00,VALID,915.096,VALID,0,VALID,100,VALID,0.0509425,VALID,18.6897,VALID,102,VALID,0.648438,
2006-01-07, 03:08:01,VALID,915.096,VALID,0,VALID,100,VALID,0.0849042,VALID,18.6932,VALID,102,VALID,0.783798,
2006-01-07, 03:09:01,VALID,915.083,VALID,0,VALID,100,VALID,0.0679233,VALID,18.6798,VALID,102,VALID,0.713356,
2006-01-07, 03:10:01,VALID,915.066,VALID,0,VALID,100,VALID,0.0509425,VALID,18.6868,VALID,106,VALID,0.682231,
2006-01-07, 03:11:01,VALID,915.061,VALID,0,VALID,100,VALID,0.0509425,VALID,18.6803,VALID,106,VALID,0.696584,
2006-01-07, 03:12:01,VALID,915.042,VALID,0,VALID,100,VALID,0.0339617,VALID,18.6768,VALID,117,VALID,0.870617,
2006-01-07, 03:13:01,VALID,915.022,VALID,0,VALID,100,VALID,0.0849042,VALID,18.6669,VALID,130,VALID,0.696023,
2006-01-07, 03:14:01,VALID,915.006,VALID,0,VALID,100,VALID,0.0849042,VALID,18.6738,VALID,131,VALID,0.894055,
2006-01-07, 03:15:01,VALID,914.991,VALID,0,VALID,100,VALID,0.0849042,VALID,18.6803,VALID,139,VALID,0.865916,
2006-01-07, 03:16:01,VALID,914.987,VALID,0,VALID,100,VALID,0.101885,VALID,18.6771,VALID,143,VALID,0.899132,
2006-01-07, 03:17:01,VALID,914.973,VALID,0,VALID,100,VALID,0.0679233,VALID,18.6704,VALID,138,VALID,0.804116,
2006-01-07, 03:18:01,VALID,914.991,VALID,0,VALID,100,VALID,0.0849042,VALID,18.6607,VALID,130,VALID,0.990141,
2006-01-07, 03:19:01,VALID,914.989,VALID,0,VALID,100,VALID,0.101885,VALID,18.6639,VALID,131,VALID,1.05766,
2006-01-07, 03:20:01,VALID,914.995,VALID,0,VALID,100,VALID,0.101885,VALID,18.6607,VALID,130,VALID,0.486923,
2006-01-07, 03:21:01,VALID,914.987,VALID,0,VALID,100,VALID,0.101885,VALID,18.6669,VALID,112,VALID,0.480196,
2006-01-07, 03:22:01,VALID,914.987,VALID,0,VALID,100,VALID,0.0849042,VALID,18.6544,VALID,112,VALID,0.403942,
2006-01-07, 03:23:01,VALID,914.988,VALID,0,VALID,100,VALID,0.101885,VALID,18.6447,VALID,112,VALID,0.611979,
2006-01-07, 03:24:01,VALID,914.998,VALID,0,VALID,100,VALID,0.0849042,VALID,18.6283,VALID,112,VALID,0.394345,
2006-01-07, 03:25:01,VALID,915.01,VALID,0,VALID,100,VALID,0.0679233,VALID,18.635,VALID,112,VALID,0.253729,
2006-01-07, 03:26:01,VALID,915.03,VALID,0,VALID,100,VALID,0.0849042,VALID,18.6281,VALID,112,VALID,0.0984003,
2006-01-07, 03:27:01,VALID,915.026,VALID,0,VALID,100,VALID,0.101885,VALID,18.6286,VALID,112,VALID,0.203835,
2006-01-07, 03:28:01,VALID,915.032,VALID,0,VALID,100,VALID,0.101885,VALID,18.609,VALID,112,VALID,0.112233,
2006-01-07, 03:29:00,VALID,915.029,VALID,0,VALID,100,VALID,0.101885,VALID,18.6092,VALID,112,VALID,0,
2006-01-07, 03:30:00,VALID,915.018,VALID,0,VALID,100,VALID,0.0849042,VALID,18.596,VALID,112,VALID,0.0569957,
2006-01-07, 03:31:00,VALID,915.002,VALID,0,VALID,100,VALID,0.101885,VALID,18.5863,VALID,112,VALID,0.387074,
2006-01-07, 03:32:00,VALID,914.997,VALID,0,VALID,100,VALID,0.101885,VALID,18.5859,VALID,119,VALID,0.683117,
2006-01-07, 03:33:00,VALID,914.991,VALID,0,VALID,100,VALID,0.101885,VALID,18.6092,VALID,128,VALID,0.716654,
2006-01-07, 03:34:00,VALID,914.993,VALID,0,VALID,100,VALID,0.101885,VALID,18.6221,VALID,128,VALID,0.921875,
2006-01-07, 03:35:00,VALID,914.978,VALID,0,VALID,100,VALID,0.118866,VALID,18.651,VALID,132,VALID,1.15376,
2006-01-07, 03:36:00,VALID,914.982,VALID,0,VALID,100,VALID,0.101885,VALID,18.6468,VALID,142,VALID,0.895633,
2006-01-07, 03:37:00,VALID,914.979,VALID,0,VALID,100,VALID,0.101885,VALID,18.6565,VALID,140,VALID,0.673328,
2006-01-07, 03:38:00,VALID,914.98,VALID,0,VALID,100,VALID,0.118866,VALID,18.666,VALID,146,VALID,0.607617,
2006-01-07, 03:39:00,VALID,914.977,VALID,0,VALID,100,VALID,0.101885,VALID,18.6759,VALID,107,VALID,0.565104,
2006-01-07, 03:40:00,VALID,914.98,VALID,0,VALID,100,VALID,0.135847,VALID,18.6789,VALID,118,VALID,0.614702,
2006-01-07, 03:41:00,VALID,914.976,VALID,0,VALID,100,VALID,0.169808,VALID,18.6819,VALID,113,VALID,0.408727,